Skip Page Navigation
NASA JPL Caltech
NASA Logo - Jet Propulsion Laboratory + View the NASA Portal
+ Center for Near-Earth Object Studies
JPL Home Earth Solar System Stars & Galaxies Technology
JPL Solar System Dynamics
BODIES ORBITS EPHEMERIDES TOOLS PHYSICAL DATA DISCOVERY FAQ SITE MAP
JPL Small-Body Database Browser
Search: [ help ]  
37131 (2000 VW29)
Classification: Main-belt Asteroid          SPK-ID: 2037131
Ephemeris | Orbit Diagram | Orbital Elements | Mission Design | Physical Parameters | Discovery Circumstances | Close-Approach Data ]

[ hide orbit diagram ]

For accurate long-term ephemerides, please instead use our Horizons system.This orbit viewer was implemented using two-body methods, and hence should not be used for determining accurate long-term trajectories (over several years or decades) or planetary encounter circumstances.


[ revert to old Java-based viewer ]

Orbital Elements at Epoch 2459000.5 (2020-May-31.0) TDB
Reference: JPL 30 (heliocentric ecliptic J2000)
 Element Value Uncertainty (1-sigma)   Units 
e .0692203260033158 2.9816e-08  
a 2.342109914840391 8.8396e-09 au
q 2.179988302999541 7.3444e-08 au
i 6.10285534981471 3.1411e-06 deg
node 99.39806590666275 3.7036e-05 deg
peri 189.00451775 4.8766e-05 deg
M 297.1449702408404 3.1945e-05 deg
tp 2459229.084549042848
(2021-Jan-14.58454904)
0.00011606 TDB
period 1309.210065936425
3.58
7.4119e-06
2.029e-08
d
yr
n .2749749710658592 1.5567e-09 deg/d
Q 2.504231526681241 9.4515e-09 au
  Orbit Determination Parameters
   # obs. used (total)      1553  
   data-arc span      11215 days (30.70 yr)  
   first obs. used      1989-11-03  
   last obs. used      2020-07-18  
   planetary ephem.      DE431  
   SB-pert. ephem.      SB431-N16  
   condition code      0  
   norm. resid. RMS      .49707  
   source      ORB  
   producer      Otto Matic  
   solution date      2020-Nov-13 00:32:15  

Additional Information
 Earth MOID = 1.16382 au 
 Jupiter MOID = 2.58964 au 
 T_jup = 3.553 
[ hide covariance matrix ]
Orbital Elements at Epoch 2457256.5 (2015-Aug-22.0) TDB
Reference: JPL 30 (heliocentric ecliptic J2000)
 Element Value Uncertainty (1-sigma)   Units 
e .06960074597319113 2.9846e-08  
q 2.179218348923845 7.3509e-08 au
tp 2456607.531703720882
(2013-Nov-11.03170372)
0.00011729 TDB
node 99.45268275436402 3.7018e-05 deg
peri 188.29904452621 4.8607e-05 deg
i 6.104186548649836 3.1416e-06 deg
  Orbit Determination Parameters
   # obs. used (total)      1553  
   data-arc span      11215 days (30.70 yr)  
   first obs. used      1989-11-03  
   last obs. used      2020-07-18  
   planetary ephem.      DE431  
   SB-pert. ephem.      SB431-N16  
   condition code      0  
   norm. resid. RMS      .49707  
   source      ORB  
   producer      Otto Matic  
   solution date      2020-Nov-13 00:32:15  

Additional Information
 Jupiter MOID = 2.58964 au 
 T_jup = 3.553 
Orbit Covariance (6×6)
  e q tp node peri i
e 8.90765545598997E-16 -2.182277372060736E-15 3.935385179785951E-14 -2.248629673266016E-15 1.746324428547023E-14 -1.034973022190498E-16
q -2.182277372060736E-15 5.403589243689777E-15 -2.826401937310552E-13 6.250343908398809E-15 -8.719695848630493E-14 3.415969636564338E-16
tp 3.935385179785951E-14 -2.826401937310552E-13 1.375714648641042E-8 -5.259511257549877E-12 3.711287987414218E-9 4.391122682366773E-12
node -2.248629673266016E-15 6.250343908398809E-15 -5.259511257549877E-12 1.37030465527386E-9 -1.363699052135446E-9 -1.538934745112213E-11
peri 1.746324428547023E-14 -8.719695848630493E-14 3.711287987414218E-9 -1.363699052135446E-9 2.362639377826688E-9 1.648943213622108E-11
i -1.034973022190498E-16 3.415969636564338E-16 4.391122682366773E-12 -1.538934745112213E-11 1.648943213622108E-11 9.869835181750154E-12

Ephemeris | Orbit Diagram | Orbital Elements | Mission Design | Physical Parameters | Discovery Circumstances | Close-Approach Data ]

Physical Parameter Table
Parameter Symbol Value Units Sigma Reference Notes
absolute magnitude H 14.8   n/a MPO468198  
diameter diameter 3.371 km 0.402 urn:nasa:pds:neowise_diameters_albedos::2.0[mainbelt] (http://adsabs.harvard.edu/abs/2011ApJ...741...68M)  
geometric albedo albedo 0.170   0.048 urn:nasa:pds:neowise_diameters_albedos::2.0[mainbelt] (http://adsabs.harvard.edu/abs/2011ApJ...741...68M)  

37131 (2000 VW29)          Discovered 2000-Nov-01 by LINEAR at Socorro
Reference: 20020227/Numbers.arcLast Updated: 2004-04-19

[ hide close-approach data ]
Close-Approach Data   ...sorted by Date/Time (TDB)
Date/Time (TDB) Time Uncertainty
(days_HH:MM)
Body Nominal Distance (au) Minimum Distance (au) Maximum Distance (au) V-relative (km/s) V-infinity (km/s) JD (TDB) Time Uncertainty (minutes) Semi-major axis (km) Semi-minor axis (km) range-LOV angle (deg) N-sigma BP Orbit Ref. Reference Modified
1980-Feb-14 20:34 < 00:01 Amphi 0.0229296361124075 0.0229274518723912 0.0229318210497293 3.70456611227667 3.70456604460007 2444284.356702676 0.636148773731363 236.093815311805 33.5937753170978 -63.6969846467521 91705.7259327041 T 30 CATAB v2.0f-lin.ifort 2020-Nov-13 00:32:19 2020-Nov-13 00:32

Alternate Designations
 2000 VW29 = 1989 VP3 = 1999 NO13 
Ephemeris | Orbit Diagram | Orbital Elements | Mission Design | Physical Parameters | Discovery Circumstances | Close-Approach Data ]
ABOUT SSD CREDITS/AWARDS PRIVACY/COPYRIGHT GLOSSARY LINKS
FirstGov 2020-Dec-01 09:36 UT
(server date/time)  
NASA Home Page
Site Manager:   Ryan S. Park
Webmaster  Alan B. Chamberlin